CXBN-2 (42704 NORAD) Tracking and Keplerian Element Data

This shows tracking and keplerian element data for the satellite.

Feedback or suggestion? Click here.




ElementValue
Catalog42704
NameCXBN-2
Epoch Orbit8636
Epoch Day323.16246863
Epoch Year2018
RAAN277.7988
Inclination51.6302
Eccentricity0.0004689
Argument of Perigee86.1764
Mean Anonmoly273.9775
Mean Motion15.83210316
Decay Rate0.0007888
L11 42704U 98067LM 18323.16246863 .00078880 00000-0 35753-3 0 9997
L22 42704 51.6302 277.7988 0004689 86.1764 273.9775 15.83210316 86366

Live tracking and technical data element details for CXBN-2 (NORAD 42704). CXBN-2 can be tracked NOW for your location showing map with azimuth and elevation plus other details from your city location.

Track the satellite on the map from your city or location and see movement details for azimuth, elevation, latitude, longitude, range, height, and movement on the map or in text.







IsCatalogInMostPopularTable: catalog: 42704, numindb: 160
Update: records affected: 1



GetName: 42704 CXBN-2

Hit Count: updated at: Mon, 19 Nov 2018 23:59:50 GMT